Time,TemperatureF,DewpointF,PressureIn,WindDirection,WindDirectionDegrees,WindSpeedMPH,WindSpeedGustMPH,Humidity,HourlyPrecipIn,Conditions,Clouds,dailyrainin,SolarRadiationWatts/m^2,SoftwareType,DateUTC
2013-01-21 00:01:00,-16.0,-26.0,-100.00,WNW,300,7.0,17.0,58,0.00,,,0.00,0.000000,,2013-01-21 06:01:00,
2013-01-21 00:33:00,-16.0,-26.0,-100.00,WNW,300,7.0,17.0,58,0.00,,,0.00,0.000000,,2013-01-21 06:33:00,
2013-01-21 00:43:00,-16.0,-26.0,-100.00,WNW,300,7.0,17.0,58,0.00,,,0.00,0.000000,,2013-01-21 06:43:00,
2013-01-21 00:53:00,-16.0,-26.0,-100.00,WNW,300,7.0,17.0,58,0.00,,,0.00,0.000000,,2013-01-21 06:53:00,
2013-01-21 01:01:00,-17.0,-26.0,-100.00,WNW,284,6.0,12.0,62,0.00,,,0.00,0.000000,,2013-01-21 07:01:00,
2013-01-21 01:33:00,-17.0,-26.0,-100.00,WNW,284,6.0,12.0,62,0.00,,,0.00,0.000000,,2013-01-21 07:33:00,
2013-01-21 01:42:00,-17.0,-26.0,-100.00,WNW,284,6.0,12.0,62,0.00,,,0.00,0.000000,,2013-01-21 07:42:00,
2013-01-21 01:53:00,-17.0,-26.0,-100.00,WNW,284,6.0,12.0,62,0.00,,,0.00,0.000000,,2013-01-21 07:53:00,
2013-01-21 02:01:00,-18.0,-27.0,-100.00,WNW,284,5.0,10.0,63,0.00,,,0.00,0.000000,,2013-01-21 08:01:00,
2013-01-21 02:23:00,-18.0,-27.0,-100.00,WNW,284,5.0,10.0,63,0.00,,,0.00,0.000000,,2013-01-21 08:23:00,
2013-01-21 02:33:00,-18.0,-27.0,-100.00,WNW,284,5.0,10.0,63,0.00,,,0.00,0.000000,,2013-01-21 08:33:00,
2013-01-21 02:43:00,-18.0,-27.0,-100.00,WNW,284,5.0,10.0,63,0.00,,,0.00,0.000000,,2013-01-21 08:43:00,
2013-01-21 02:53:00,-18.0,-27.0,-100.00,WNW,284,5.0,10.0,63,0.00,,,0.00,0.000000,,2013-01-21 08:53:00,
2013-01-21 03:01:00,-19.0,-27.0,-100.00,West,281,5.0,10.0,64,0.00,,,0.00,0.000000,,2013-01-21 09:01:00,
2013-01-21 03:33:00,-19.0,-27.0,-100.00,West,281,5.0,10.0,64,0.00,,,0.00,0.000000,,2013-01-21 09:33:00,
2013-01-21 03:43:00,-19.0,-27.0,-100.00,West,281,5.0,10.0,64,0.00,,,0.00,0.000000,,2013-01-21 09:43:00,
2013-01-21 03:53:00,-19.0,-27.0,-100.00,West,281,5.0,10.0,64,0.00,,,0.00,0.000000,,2013-01-21 09:53:00,
2013-01-21 04:01:00,-20.0,-28.0,-100.00,WNW,284,5.0,11.0,64,0.00,,,0.00,0.000000,,2013-01-21 10:01:00,
2013-01-21 04:33:00,-20.0,-28.0,-100.00,WNW,284,5.0,11.0,64,0.00,,,0.00,0.000000,,2013-01-21 10:33:00,
2013-01-21 04:43:00,-20.0,-28.0,-100.00,WNW,284,5.0,11.0,64,0.00,,,0.00,0.000000,,2013-01-21 10:43:00,
2013-01-21 04:53:00,-20.0,-28.0,-100.00,WNW,284,5.0,11.0,64,0.00,,,0.00,0.000000,,2013-01-21 10:53:00,
2013-01-21 05:01:00,-20.0,-28.0,-100.00,West,279,6.0,10.0,64,0.00,,,0.00,0.000000,,2013-01-21 11:01:00,
2013-01-21 05:33:00,-20.0,-28.0,-100.00,West,279,6.0,10.0,64,0.00,,,0.00,0.000000,,2013-01-21 11:33:00,
2013-01-21 05:43:00,-20.0,-28.0,-100.00,West,279,6.0,10.0,64,0.00,,,0.00,0.000000,,2013-01-21 11:43:00,
2013-01-21 05:53:00,-20.0,-28.0,-100.00,West,279,6.0,10.0,64,0.00,,,0.00,0.000000,,2013-01-21 11:53:00,
2013-01-21 06:01:00,-21.0,-29.0,-100.00,West,275,5.0,9.0,64,0.00,,,0.00,0.000000,,2013-01-21 12:01:00,
2013-01-21 06:23:00,-21.0,-29.0,-100.00,West,275,5.0,9.0,64,0.00,,,0.00,0.000000,,2013-01-21 12:23:00,
2013-01-21 06:33:00,-21.0,-29.0,-100.00,West,275,5.0,9.0,64,0.00,,,0.00,0.000000,,2013-01-21 12:33:00,
2013-01-21 06:43:00,-21.0,-29.0,-100.00,West,275,5.0,9.0,64,0.00,,,0.00,0.000000,,2013-01-21 12:43:00,
2013-01-21 06:53:00,-21.0,-29.0,-100.00,West,275,5.0,9.0,64,0.00,,,0.00,0.000000,,2013-01-21 12:53:00,
2013-01-21 07:01:00,-21.0,-29.0,-100.00,West,274,5.0,9.0,64,0.00,,,0.00,0.000000,,2013-01-21 13:01:00,
2013-01-21 07:33:00,-21.0,-29.0,-100.00,West,274,5.0,9.0,64,0.00,,,0.00,0.000000,,2013-01-21 13:33:00,
2013-01-21 07:43:00,-21.0,-29.0,-100.00,West,274,5.0,9.0,64,0.00,,,0.00,0.000000,,2013-01-21 13:43:00,
2013-01-21 07:54:00,-21.0,-29.0,-100.00,West,274,5.0,9.0,64,0.00,,,0.00,0.000000,,2013-01-21 13:54:00,
2013-01-21 08:01:00,-22.0,-30.0,-100.00,West,269,6.0,9.0,64,0.00,,,0.00,1.000000,,2013-01-21 14:01:00,
2013-01-21 08:33:00,-22.0,-30.0,-100.00,West,269,6.0,9.0,64,0.00,,,0.00,1.000000,,2013-01-21 14:33:00,
2013-01-21 08:43:00,-22.0,-30.0,-100.00,West,269,6.0,9.0,64,0.00,,,0.00,1.000000,,2013-01-21 14:43:00,
2013-01-21 08:53:00,-22.0,-30.0,-100.00,West,269,6.0,9.0,64,0.00,,,0.00,1.000000,,2013-01-21 14:53:00,
2013-01-21 09:01:00,-19.0,-28.0,-100.00,West,272,7.0,11.0,62,0.00,,,0.00,58.000000,,2013-01-21 15:01:00,
2013-01-21 09:33:00,-19.0,-28.0,-100.00,West,272,7.0,11.0,62,0.00,,,0.00,58.000000,,2013-01-21 15:33:00,
2013-01-21 09:43:00,-19.0,-28.0,-100.00,West,272,7.0,11.0,62,0.00,,,0.00,58.000000,,2013-01-21 15:43:00,
2013-01-21 09:53:00,-19.0,-28.0,-100.00,West,272,7.0,11.0,62,0.00,,,0.00,58.000000,,2013-01-21 15:53:00,
2013-01-21 10:01:00,-15.0,-25.0,-100.00,West,280,8.0,13.0,58,0.00,,,0.00,242.000000,,2013-01-21 16:01:00,
2013-01-21 10:33:00,-15.0,-25.0,-100.00,West,280,8.0,13.0,58,0.00,,,0.00,242.000000,,2013-01-21 16:33:00,
2013-01-21 10:43:00,-15.0,-25.0,-100.00,West,280,8.0,13.0,58,0.00,,,0.00,242.000000,,2013-01-21 16:43:00,
2013-01-21 10:53:00,-15.0,-25.0,-100.00,West,280,8.0,13.0,58,0.00,,,0.00,242.000000,,2013-01-21 16:53:00,
2013-01-21 11:01:00,-12.0,-25.0,-100.00,WNW,283,9.0,14.0,52,0.00,,,0.00,380.000000,,2013-01-21 17:01:00,
2013-01-21 11:33:00,-12.0,-25.0,-100.00,WNW,283,9.0,14.0,52,0.00,,,0.00,380.000000,,2013-01-21 17:33:00,
2013-01-21 11:43:00,-12.0,-25.0,-100.00,WNW,283,9.0,14.0,52,0.00,,,0.00,380.000000,,2013-01-21 17:43:00,
2013-01-21 11:53:00,-12.0,-25.0,-100.00,WNW,283,9.0,14.0,52,0.00,,,0.00,380.000000,,2013-01-21 17:53:00,
2013-01-21 12:01:00,-10.0,-25.0,-100.00,West,281,8.0,16.0,47,0.00,,,0.00,440.000000,,2013-01-21 18:01:00,
2013-01-21 12:33:00,-10.0,-25.0,-100.00,West,281,8.0,16.0,47,0.00,,,0.00,440.000000,,2013-01-21 18:33:00,
2013-01-21 12:43:00,-10.0,-25.0,-100.00,West,281,8.0,16.0,47,0.00,,,0.00,440.000000,,2013-01-21 18:43:00,
2013-01-21 12:53:00,-10.0,-25.0,-100.00,West,281,8.0,16.0,47,0.00,,,0.00,440.000000,,2013-01-21 18:53:00,
2013-01-21 13:01:00,-8.0,-24.0,-100.00,WNW,289,9.0,17.0,45,0.00,,,0.00,479.000000,,2013-01-21 19:01:00,
2013-01-21 13:23:00,-8.0,-24.0,-100.00,WNW,289,9.0,17.0,45,0.00,,,0.00,479.000000,,2013-01-21 19:23:00,
2013-01-21 13:33:00,-8.0,-24.0,-100.00,WNW,289,9.0,17.0,45,0.00,,,0.00,479.000000,,2013-01-21 19:33:00,
2013-01-21 13:43:00,-8.0,-24.0,-100.00,WNW,289,9.0,17.0,45,0.00,,,0.00,479.000000,,2013-01-21 19:43:00,
2013-01-21 13:53:00,-8.0,-24.0,-100.00,WNW,289,9.0,17.0,45,0.00,,,0.00,479.000000,,2013-01-21 19:53:00,
2013-01-21 14:01:00,-8.0,-24.0,-100.00,WNW,291,8.0,17.0,43,0.00,,,0.00,442.000000,,2013-01-21 20:01:00,
2013-01-21 14:33:00,-8.0,-24.0,-100.00,WNW,291,8.0,17.0,43,0.00,,,0.00,442.000000,,2013-01-21 20:33:00,
2013-01-21 14:43:00,-8.0,-24.0,-100.00,WNW,291,8.0,17.0,43,0.00,,,0.00,442.000000,,2013-01-21 20:43:00,
2013-01-21 14:53:00,-8.0,-24.0,-100.00,WNW,291,8.0,17.0,43,0.00,,,0.00,442.000000,,2013-01-21 20:53:00,
2013-01-21 15:01:00,-8.0,-24.0,-100.00,West,273,9.0,15.0,45,0.00,,,0.00,330.000000,,2013-01-21 21:01:00,
2013-01-21 15:33:00,-8.0,-24.0,-100.00,West,273,9.0,15.0,45,0.00,,,0.00,330.000000,,2013-01-21 21:33:00,
2013-01-21 15:43:00,-8.0,-24.0,-100.00,West,273,9.0,15.0,45,0.00,,,0.00,330.000000,,2013-01-21 21:43:00,
2013-01-21 15:53:00,-8.0,-24.0,-100.00,West,273,9.0,15.0,45,0.00,,,0.00,330.000000,,2013-01-21 21:53:00,
2013-01-21 16:01:00,-8.0,-24.0,-100.00,WNW,284,8.0,16.0,43,0.00,,,0.00,237.000000,,2013-01-21 22:01:00,
2013-01-21 16:23:00,-8.0,-24.0,-100.00,WNW,284,8.0,16.0,43,0.00,,,0.00,237.000000,,2013-01-21 22:23:00,
2013-01-21 16:33:00,-8.0,-24.0,-100.00,WNW,284,8.0,16.0,43,0.00,,,0.00,237.000000,,2013-01-21 22:33:00,
2013-01-21 16:43:00,-8.0,-24.0,-100.00,WNW,284,8.0,16.0,43,0.00,,,0.00,237.000000,,2013-01-21 22:43:00,
2013-01-21 16:53:00,-8.0,-24.0,-100.00,WNW,284,8.0,16.0,43,0.00,,,0.00,237.000000,,2013-01-21 22:53:00,
2013-01-21 17:01:00,-12.0,-26.0,-100.00,West,278,7.0,16.0,49,0.00,,,0.00,71.000000,,2013-01-21 23:01:00,
2013-01-21 17:33:00,-12.0,-26.0,-100.00,West,278,7.0,16.0,49,0.00,,,0.00,71.000000,,2013-01-21 23:33:00,
2013-01-21 17:43:00,-12.0,-26.0,-100.00,West,278,7.0,16.0,49,0.00,,,0.00,71.000000,,2013-01-21 23:43:00,
2013-01-21 17:53:00,-12.0,-26.0,-100.00,West,278,7.0,16.0,49,0.00,,,0.00,71.000000,,2013-01-21 23:53:00,
2013-01-21 18:01:00,-14.0,-25.0,-100.00,West,277,6.0,13.0,56,0.00,,,0.00,1.000000,,2013-01-22 00:01:00,
2013-01-21 18:23:00,-14.0,-25.0,-100.00,West,277,6.0,13.0,56,0.00,,,0.00,1.000000,,2013-01-22 00:23:00,
2013-01-21 18:33:00,-14.0,-25.0,-100.00,West,277,6.0,13.0,56,0.00,,,0.00,1.000000,,2013-01-22 00:33:00,
2013-01-21 18:43:00,-14.0,-25.0,-100.00,West,277,6.0,13.0,56,0.00,,,0.00,1.000000,,2013-01-22 00:43:00,
2013-01-21 18:53:00,-14.0,-25.0,-100.00,West,277,6.0,13.0,56,0.00,,,0.00,1.000000,,2013-01-22 00:53:00,
2013-01-21 19:01:00,-15.0,-25.0,-100.00,WNW,284,5.0,11.0,59,0.00,,,0.00,0.000000,,2013-01-22 01:01:00,
2013-01-21 19:23:00,-15.0,-25.0,-100.00,WNW,284,5.0,11.0,59,0.00,,,0.00,0.000000,,2013-01-22 01:23:00,
2013-01-21 19:33:00,-15.0,-25.0,-100.00,WNW,284,5.0,11.0,59,0.00,,,0.00,0.000000,,2013-01-22 01:33:00,
2013-01-21 19:43:00,-15.0,-25.0,-100.00,WNW,284,5.0,11.0,59,0.00,,,0.00,0.000000,,2013-01-22 01:43:00,
2013-01-21 19:52:00,-15.0,-25.0,-100.00,WNW,284,5.0,11.0,59,0.00,,,0.00,0.000000,,2013-01-22 01:52:00,
2013-01-21 20:01:00,-16.0,-25.0,-100.00,West,281,6.0,13.0,62,0.00,,,0.00,0.000000,,2013-01-22 02:01:00,
2013-01-21 20:33:00,-16.0,-25.0,-100.00,West,281,6.0,13.0,62,0.00,,,0.00,0.000000,,2013-01-22 02:33:00,
2013-01-21 20:43:00,-16.0,-25.0,-100.00,West,281,6.0,13.0,62,0.00,,,0.00,0.000000,,2013-01-22 02:43:00,
2013-01-21 20:53:00,-16.0,-25.0,-100.00,West,281,6.0,13.0,62,0.00,,,0.00,0.000000,,2013-01-22 02:53:00,
2013-01-21 21:01:00,-17.0,-26.0,-100.00,WNW,282,6.0,12.0,63,0.00,,,0.00,0.000000,,2013-01-22 03:01:00,
2013-01-21 21:22:00,-17.0,-26.0,-100.00,WNW,282,6.0,12.0,63,0.00,,,0.00,0.000000,,2013-01-22 03:22:00,
2013-01-21 21:33:00,-17.0,-26.0,-100.00,WNW,282,6.0,12.0,63,0.00,,,0.00,0.000000,,2013-01-22 03:33:00,
2013-01-21 21:42:00,-17.0,-26.0,-100.00,WNW,282,6.0,12.0,63,0.00,,,0.00,0.000000,,2013-01-22 03:42:00,
2013-01-21 21:53:00,-17.0,-26.0,-100.00,WNW,282,6.0,12.0,63,0.00,,,0.00,0.000000,,2013-01-22 03:53:00,
2013-01-21 22:01:00,-17.0,-25.0,-100.00,WNW,287,4.0,9.0,65,0.00,,,0.00,0.000000,,2013-01-22 04:01:00,
2013-01-21 22:33:00,-17.0,-25.0,-100.00,WNW,287,4.0,9.0,65,0.00,,,0.00,0.000000,,2013-01-22 04:33:00,
2013-01-21 22:42:00,-17.0,-25.0,-100.00,WNW,287,4.0,9.0,65,0.00,,,0.00,0.000000,,2013-01-22 04:42:00,
2013-01-21 22:52:00,-17.0,-25.0,-100.00,WNW,287,4.0,9.0,65,0.00,,,0.00,0.000000,,2013-01-22 04:52:00,
2013-01-21 23:01:00,-20.0,-28.0,-100.00,West,274,4.0,7.0,65,0.00,,,0.00,0.000000,,2013-01-22 05:01:00,
2013-01-21 23:33:00,-20.0,-28.0,-100.00,West,274,4.0,7.0,65,0.00,,,0.00,0.000000,,2013-01-22 05:33:00,
2013-01-21 23:43:00,-20.0,-28.0,-100.00,West,274,4.0,7.0,65,0.00,,,0.00,0.000000,,2013-01-22 05:43:00,
2013-01-21 23:53:00,-20.0,-28.0,-100.00,West,274,4.0,7.0,65,0.00,,,0.00,0.000000,,2013-01-22 05:53:00,